Regional Weather Roundup
Issued by NWS

Home | Current Version | Previous Version | Graphics & Text | Print | Product List | Glossary On
Versions: 1 2 3 4 5 6 7 8 9 10 11 12 13 14 15 16 17 18 19 20 21 22 23 24 25 26 27 28 29 30 31 32 33 34 35 36 37 38 39 40 41 42 43 44 45 46 47 48 49 50
000
ASUS43 KLSX 301259
RWRMO

WEATHER SUMMARY FOR MISSOURI
NATIONAL WEATHER SERVICE SPRINGFIELD MO
800 AM CDT THU JUL 30 2015

NOTE: "FAIR" INDICATES FEW OR NO CLOUDS BELOW 12,000 FEET WITH NO
       SIGNIFICANT WEATHER AND/OR OBSTRUCTIONS TO VISIBILITY.
       CURRENT SKY AND/OR WEATHER CONDITIONS ARE NOT AVAILABLE FOR
       CHILLICOTHE AND FARMINGTON.

MOZ001>031-035>038-043-044-053-054-301400-
...NORTHERN AND WESTERN MISSOURI...

CITY           SKY/WX    TMP DP  RH WIND       PRES   REMARKS
KANSAS CTY INT MOSUNNY   72  67  84 CALM      30.21R
KANSAS C DTWN  SUNNY     71  67  87 CALM      30.20R
LEE`S SUMMIT   SUNNY     72  66  81 CALM      30.21R
ST JOSEPH        N/A     64  64 100 CALM      30.20R
CHILLICOTHE      N/A     70  67  90 CALM      30.20R
KIRKSVILLE     SUNNY     71  61  70 W7        30.18R

$$
MOZ066>068-077>081-088>096-101>105-301400-
...SOUTHWEST MISSOURI...

CITY           SKY/WX    TMP DP  RH WIND       PRES   REMARKS
SPRINGFIELD    MOSUNNY   74  63  68 E5        30.19R
JOPLIN         MOSUNNY   76  66  71 E9        30.18R

$$
MOZ032>034-039>042-045>050-055>058-069>072-301400-
...CENTRAL MISSOURI...

CITY           SKY/WX    TMP DP  RH WIND       PRES   REMARKS
COLUMBIA       SUNNY     71  66  84 NW6       30.18R
JEFFERSON CITY FOG       66  66 100 CALM      30.17S VSB 3/4
ROLLA          SUNNY     71  64  78 N5        30.18R
SEDALIA        SUNNY     72  67  84 CALM      30.20R
OSAGE BEACH    SUNNY     70  63  78 CALM      30.19R

$$
MOZ051-052-059>065-301400-
...EAST CENTRAL MISSOURI...

CITY           SKY/WX    TMP DP  RH WIND       PRES   REMARKS
ST LOUIS INTL  SUNNY     76  64  66 W3        30.15S
SPIRIT OF STL  SUNNY     71  64  78 W3        30.14S
ST CHARLES     SUNNY     75  64  68 W3        30.14S

$$
MOZ072>076-082>087-097>100-106>115-301400-
...SOUTH CENTRAL AND SOUTHEAST MISSOURI...

CITY           SKY/WX    TMP DP  RH WIND       PRES   REMARKS
CAPE GIRARDEAU NOT AVBL
FARMINGTON     SUNNY     72  61  68 N3        30.20S
POPLAR BLUFF   SUNNY     74  65  73 N6        30.13R
WEST PLAINS    SUNNY     71  61  70 NE5       30.20R

$$



USA.gov is the U.S. government's official web portal to all federal, state and local government web resources and services.